Regional Weather Roundup
Issued by NWS Newport/Morehead, NC

Current Version | Previous Version | Graphics & Text | Print | Product List | Glossary On
Versions: 1 2 3 4 5 6 7 8 9 10 11 12 13 14 15 16 17 18 19 20 21 22 23 24 25 26 27 28 29 30 31 32 33 34 35 36 37 38 39 40 41 42 43 44 45 46 47 48 49 50
000 ASUS42 KMHX 290213 RWRMHX WEATHER ROUNDUP FOR EASTERN NORTH CAROLINA NATIONAL WEATHER SERVICE NEWPORT/MOREHEAD CITY NC 1000 PM EDT FRI AUG 28 2015 NOTE: "FAIR" INDICATES FEW OR NO CLOUDS BELOW 12,000 FEET WITH NO SIGNIFICANT WEATHER AND/OR OBSTRUCTIONS TO VISIBILITY NCZ015>017-031-032-045>047-102-103-290300- NORTH COAST CITY SKY/WX TMP DP RH WIND PRES REMARKS EDENTON PTCLDY 68 62 80 CALM 30.19R ELIZABETH CITY CLEAR 71 63 75 E6 30.19R KITTY HAWK PTCLDY 74 64 69 NE7 30.17S MANTEO PTCLDY 74 65 74 NE9 30.19R $$ NCZ045>047-081-094-103-104-290300- CENTRAL COAST CITY SKY/WX TMP DP RH WIND PRES REMARKS FRISCO MOCLDY 76 65 68 NE9 30.16R SWANQUARTER NOT AVBL $$ NCZ095-097-098-100-101-290300- SOUTHERN COAST CITY SKY/WX TMP DP RH WIND PRES REMARKS BEAUFORT CLEAR 73 67 81 NE7 30.15S CEDAR ISLAND NOT AVBL JACKSONVILLE CLEAR 73 65 75 N5 30.16R PINEY ISLAND PTCLDY N/A N/A N/A NE10G21 30.16R WILMINGTON PTCLDY 73 66 78 NE7 30.16R $$ NCZ011>013-027>030-043-044-078>080-089-090>093-098-290300- COASTAL PLAIN CITY SKY/WX TMP DP RH WIND PRES REMARKS AHOSKIE CLEAR 68 58 72 CALM 30.20R CLINTON CLEAR 73 65 76 CALM 30.18R ELIZABETHTOWN PTCLDY 71 64 79 CALM 30.17R GOLDSBORO PTCLDY 69 62 77 E5 30.17R GREENVILLE PTCLDY 72 63 73 E3 30.20R HAVELOCK CLEAR 74 66 76 NE9 30.17R KENANSVILLE N/A 70 62 74 CALM 30.18S KINSTON NOT AVBL NEW BERN PTCLDY 72 63 73 NE7 30.18R RICHLANDS PTCLDY 68 61 77 N3 30.18R ROCKY MOUNT PTCLDY 73 61 65 CALM 30.19R WASHINGTON PTCLDY 69 63 80 CALM 30.19R WHITEVILLE PTCLDY 70 66 86 CALM 30.16R $$ AMZ130-135-150-152-154-156-158-170-250-252-270-ANZ085-086-088-633-658-670-290300- MARINE OBSERVATIONS STATION/POSITION TIME TEMP WIND PRES WAVE SWELL AIR SEA DIR/SP/G HT/PER HT/PER (UTC) (F) (DEG/KT/KT) (MB) (FT/S) (FT/S) CHESAPEAKE LIGHT 0200 76 90/ 10/ 10 1023.1 64 E VA BEACH 0150 76 80 50/ 10/ 12 1021.8 4/ 9 3/ 9 DUCK NOT AVBL 2 E DUCK 0111 78 N/A 4/10 2/11 OREGON INLET NOT AVBL 13E OREGON INLT 0200 78 N/A 4/11 2/11 HATTERAS CG NOT AVBL DIAMOND BUOY 0150 80 82 40/ 17/ 21 1020.6 4/11 3/11 CAPE LOOKOUT 0200 77 30/ 17/ 21 1020.6 BEAUFORT LAB NOT AVBL 30 SE NEW RVR IN 0108 79 82 50/ 17/ 21 1020.5 30 SE NEW RVR IN 0125 82 N/A 5/ 6 2/11 27 SE WRIGHTSVLE 0100 76 82 50/ 19/ 21 N/A 5 SE WRIGHTSVLE 0108 80 82 60/ 16/ 21 1020.1 225 S CAPE HAT 0150 81 84 190/ 4/ 4 1019.6 4/11 3/11 41 SE CHARLESTON 0150 81 84 60/ 14/ 17 1019.1 6/ 6 2/ 8 $$

USA.gov is the U.S. government's official web portal to all federal, state and local government web resources and services.